Flag for Germany Weather past 2 weeks in Zwickau, Saxony, Germany

Now
65 °F

Overcast.


Feels Like: 65 °F
Forecast: 51 / 69 °F
Wind: 2 mph from Northwest

Location: Gera-Leumnitz

Current Time: Sep 2, 2015 at 5:23:46 PM

Latest Report: Sep 2, 2015 at 4:00 PM


Visibility: 37 mi

Pressure: 29.99 "Hg

Humidity: 52%

Dew point: 47 °F

Location of ZwickauLocation

Historic Weather in Zwickau — Graph

°F

Zwickau temperature yesterday

Maximum temperature yesterday: 84 °F (at 3:00 PM)
Minimum temperature yesterday: 59 °F (at 10:00 PM)
Average temperature yesterday: 70 °F

Past Weeks' High & Low Weather Summary

 TemperatureHumidityPressure
High91 °F (Aug 31, 5:00 PM)100% (Aug 19, 7:00 AM)30.31 "Hg (Aug 19, 7:00 AM)
Low48 °F (Aug 22, 6:00 AM)33% (Aug 21, 3:00 PM)29.67 "Hg (Aug 24, 7:00 PM)
Average65 °F73%30.02 "Hg
* Reported Aug 18 4:00 PM — Sep 2 4:00 PM, Zwickau, Weather by CustomWeather, © 2015

Note: Actual official high and low records may vary slightly from our data, if they occured in-between our weather recording intervals... More about our weather records

Advertising

Zwickau weather history for previous 24 hours

 ConditionsComfort  
Time TempWeatherWind HumidityBarometerVisibility
4:00 PM
Wed, Sep 2
65 °FOvercast.2 mph52%29.99 "Hg37 mi
3:00 PM65 °FPartly sunny.1 mph52%30.00 "Hg37 mi
2:00 PM64 °FPartly sunny.2 mph55%30.01 "Hg37 mi
1:00 PM64 °FScattered clouds.2 mph55%30.03 "Hg31 mi
12:00 PM61 °FScattered clouds.2 mph60%30.04 "Hg31 mi
11:00 AM61 °FScattered clouds.3 mph66%30.05 "Hg31 mi
10:00 AM58 °FPartly sunny.5 mph70%30.06 "Hg25 mi
9:00 AM56 °FScattered clouds.3 mph83%30.06 "Hg19 mi
8:00 AM54 °FPassing clouds.3 mph92%30.05 "Hg16 mi
7:00 AM52 °FPassing clouds.3 mph96%30.05 "Hg11 mi
6:00 AM53 °FOvercast.3 mph95%30.04 "Hg19 mi
5:00 AM53 °FOvercast.3 mph94%30.03 "Hg15 mi
4:00 AM55 °FHaze.2 mph91%30.03 "Hg22 mi
3:00 AM55 °FOvercast.3 mph92%30.02 "Hg25 mi
2:00 AM56 °FOvercast.5 mph92%30.00 "Hg34 mi
1:00 AM57 °FOvercast.6 mph88%29.99 "Hg43 mi
11:00 PM
Tue, Sep 1
59 °FPassing clouds.3 mph92%29.95 "Hg43 mi
10:00 PM59 °FLight rain. Overcast.5 mph91%29.94 "Hg31 mi
9:00 PM59 °FLow clouds.5 mph89%29.92 "Hg37 mi
8:00 PM59 °FDrizzle. Low clouds.5 mph94%29.88 "Hg3 mi
7:00 PM65 °FOvercast.3 mph91%29.82 "Hg25 mi
6:00 PM74 °FOvercast.8 mph55%29.78 "Hg12 mi
5:00 PM74 °FOvercast.7 mph60%29.75 "Hg31 mi
Weather by CustomWeather, © 2015

See weather overviewHow to use our weather pages